EW6283 Weather Reports


time (UTC)temp
C
wind
direction
speed
KPH
gust
KPH
rain 1hr
cm
rain 24hr
cm
rain mn
cm
humidity
%
barometer
mb
20260507015528 8 53 3.2 6.4 0.00 1.63 1.63 94 1007.0
20260507015027 8 15 3.2 6.4 0.10 1.63 1.63 94 1007.1
20260507014644 8 68 0.0 6.4 0.13 1.63 1.63 94 1007.0
20260507014027 8 56 4.8 6.4 0.13 1.63 1.63 94 1006.9
20260507013528 8 83 1.6 6.4 0.15 1.60 1.60 94 1006.9
20260507013028 8 83 0.0 6.4 0.28 1.60 1.60 94 1006.9
20260507012527 8 66 1.6 11.3 0.30 1.60 1.60 94 1006.8
20260507012144 8 58 1.6 11.3 0.30 1.57 1.57 94 1006.8
20260507011528 8 69 3.2 9.7 0.20 1.55 1.55 95 1006.9
20260507011029 8 37 6.4 12.9 0.43 1.52 1.52 95 1006.9
20260507010642 8 81 8.0 12.9 0.23 1.50 1.50 95 1006.8
20260507010028 8 52 6.4 12.9 0.23 1.45 1.45 94 1006.5
20260507005528 8 97 1.6 9.7 0.18 1.42 1.42 94 1006.6
20260507005027 8 48 6.4 11.3 0.18 1.42 1.42 94 1006.3
20260507004644 8 70 4.8 11.3 0.18 1.42 1.42 94 1006.2
20260507004028 8 68 4.8 14.5 0.00 1.40 1.40 94 1006.2
20260507003643 8 92 9.7 19.3 0.00 1.40 1.40 94 1006.1
20260507003029 8 79 12.9 19.3 0.00 1.37 1.37 94 1006.1
20260507002528 8 136 3.2 16.1 0.00 1.37 1.37 94 1006.4
20260507002142 8 50 3.2 16.1 0.00 1.37 1.37 94 1005.9
20260507001643 8 52 11.3 14.5 0.00 1.37 1.37 93 1005.9
20260507001027 9 79 6.4 12.9 0.00 1.37 1.37 93 1005.8
20260507000528 9 45 9.7 19.3 0.00 1.35 1.35 94 1005.6
20260507000027 9 42 4.8 19.3 0.00 1.35 1.35 94 1005.3
20260506235642 10 20 11.3 14.5 0.10 1.35 1.35 93 1005.4
20260506235258 10 90 3.2 17.7 0.18 1.35 1.35 94 1005.3
20260506234644 10 52 3.2 20.9 0.33 1.35 1.35 93 1005.0
20260506234028 10 53 8.0 20.9 0.18 1.32 1.32 93 1005.0
20260506233527 10 342 6.4 16.1 0.25 1.30 1.30 93 1004.9
20260506233028 10 13 3.2 16.1 0.51 1.30 1.30 93 1004.8
20260506232527 10 77 12.9 14.5 0.15 1.24 1.24 92 1004.6
20260506232027 11 10 12.9 19.3 0.15 1.22 1.22 92 1004.5
20260506231643 11 52 8.0 19.3 0.15 1.22 1.22 91 1004.2
20260506231027 12 116 9.7 16.1 0.18 1.19 1.19 91 1004.0
20260506230528 12 21 6.4 17.7 0.25 1.19 1.19 91 1003.9
20260506230029 12 340 6.4 24.1 0.33 1.17 1.17 89 1003.6
20260506225529 12 347 6.4 32.2 0.00 1.14 1.14 89 1003.4
20260506225026 12 323 14.5 32.2 0.00 1.12 1.12 88 1003.1
20260506224758 13 290 20.9 29.0 0.00 1.12 1.12 89 1003.1
20260506224028 13 272 11.3 37.0 0.00 1.12 1.12 89 1002.8
20260506223528 13 285 24.1 37.0 0.10 1.12 1.12 88 1002.7
20260506223027 14 280 17.7 25.7 0.15 1.12 1.12 88 1002.6
20260506222642 15 278 22.5 24.1 0.25 1.12 1.12 89 1002.4
20260506222027 15 295 12.9 19.3 0.58 1.09 1.09 90 1002.4
20260506221529 15 270 12.9 19.3 0.00 1.04 1.04 90 1002.3
20260506221028 15 241 6.4 24.1 0.00 1.04 1.04 90 1002.1
20260506220527 16 197 9.7 24.1 0.00 1.04 1.04 90 1002.0
20260506220028 16 166 6.4 20.9 0.00 1.04 1.04 90 1002.1
20260506215642 16 210 14.5 20.9 0.00 1.04 1.04 90 1002.1
20260506215027 16 231 6.4 20.9 0.00 1.04 1.04 90 1002.1
20260506214529 15 200 12.9 20.9 0.00 1.04 1.04 90 1002.1
20260506214027 15 195 16.1 20.9 0.00 1.04 1.04 90 1002.0
20260506213642 15 201 14.5 20.9 0.00 1.04 1.04 90 1002.0
20260506213029 15 185 11.3 20.9 0.00 1.04 1.04 90 1002.0
20260506212527 15 199 8.0 17.7 0.00 1.04 1.04 91 1002.1
20260506212028 15 193 11.3 17.7 0.00 1.04 1.04 90 1002.1
20260506211643 15 198 12.9 16.1 0.00 1.04 1.04 90 1002.1
20260506211027 15 203 9.7 17.7 0.00 1.02 1.02 90 1002.1
20260506210643 15 214 12.9 16.1 0.00 1.02 1.02 90 1002.2
20260506210028 15 208 6.4 19.3 0.00 1.02 1.02 90 1002.2
20260506205528 15 208 9.7 16.1 0.00 1.02 1.02 90 1002.3
20260506205142 15 185 11.3 17.7 0.00 1.02 1.02 90 1002.3
20260506204644 15 200 12.9 17.7 0.00 1.02 1.02 90 1002.4
20260506204026 15 180 6.4 29.0 0.00 1.02 1.02 89 1002.4
20260506203528 15 218 24.1 27.4 0.00 1.02 1.02 90 1002.3
20260506203143 15 169 11.3 27.4 0.00 1.02 1.02 90 1002.3
20260506202642 15 195 12.9 25.7 0.00 1.02 1.02 90 1002.3
20260506202028 15 151 4.8 24.1 0.00 1.02 1.02 90 1002.3
20260506201528 15 230 17.7 24.1 0.00 1.02 1.02 90 1002.4
20260506201027 15 210 11.3 29.0 0.00 1.02 1.02 90 1002.5
20260506200642 15 203 22.5 29.0 0.00 1.02 1.02 90 1002.6
20260506200029 15 183 9.7 27.4 0.00 1.02 1.02 91 1002.6
20260506195643 15 199 16.1 30.6 0.00 1.02 1.02 91 1002.6
20260506195258 15 210 16.1 30.6 0.00 1.02 1.02 90 1002.6
20260506194529 15 201 16.1 27.4 0.00 1.02 1.02 90 1002.7
20260506194142 15 209 9.7 27.4 0.00 1.02 1.02 90 1002.7
20260506193527 15 193 14.5 27.4 0.00 0.99 0.99 90 1002.7
20260506193144 15 249 24.1 32.2 0.00 0.99 0.99 90 1002.8
20260506192642 15 206 25.7 33.8 0.00 0.99 0.99 90 1002.8
20260506192027 15 197 17.7 32.2 0.00 0.99 0.99 90 1002.9
20260506191528 15 224 14.5 25.7 0.00 0.99 0.99 90 1002.8
20260506191027 15 203 14.5 29.0 0.10 0.99 0.99 91 1002.8
20260506190642 15 203 16.1 29.0 0.10 0.99 0.99 90 1002.9
20260506190143 15 194 17.7 30.6 0.20 0.99 0.99 91 1002.9
20260506185529 15 214 12.9 30.6 0.33 0.99 0.99 91 1002.9
20260506185142 15 201 16.1 27.4 0.43 0.97 0.97 91 1003.0
20260506184528 15 229 14.5 27.4 0.36 0.91 0.91 92 1003.1
20260506184143 15 167 17.7 25.7 0.28 0.91 0.91 92 1003.0
20260506183528 15 196 9.7 16.1 0.18 0.86 0.86 93 1003.0
20260506183143 15 226 8.0 11.3 0.18 0.86 0.86 93 1003.0
20260506182527 15 216 4.8 8.0 0.13 0.84 0.84 93 1003.0
20260506182026 15 258 3.2 9.7 0.13 0.84 0.84 93 1003.0
20260506181529 15 191 4.8 9.7 0.10 0.81 0.81 93 1003.0
20260506181027 15 209 6.4 9.7 0.10 0.81 0.81 93 1003.1
20260506180528 15 227 6.4 9.7 0.13 0.79 0.79 93 1003.2
20260506180029 15 243 6.4 11.3 0.18 0.79 0.79 93 1003.2
20260506175643 15 229 6.4 11.3 0.18 0.79 0.79 93 1003.3
20260506175027 15 227 8.0 11.3 0.18 0.76 0.76 93 1003.4
20260506174529 15 205 6.4 12.9 0.18 0.76 0.76 93 1003.3
20260506174142 15 196 8.0 12.9 0.30 0.71 0.71 93 1003.4
20260506173528 15 136 4.8 12.9 0.61 0.71 0.71 92 1003.5
20260506173029 15 197 4.8 12.9 0.99 0.66 0.66 92 1003.7
20260506172527 15 196 8.0 14.5 0.41 0.58 0.58 91 1003.7
20260506172027 15 195 3.2 14.5 0.64 0.56 0.56 92 1003.7
20260506171644 15 207 4.8 16.1 0.43 0.51 0.51 92 1003.9
20260506171142 15 187 4.8 16.1 0.30 0.48 0.48 91 1003.7
20260506170643 15 164 8.0 16.1 0.41 0.46 0.46 91 1003.7
20260506170143 15 103 1.6 17.7 0.56 0.41 0.41 91 1003.9
20260506165528 15 168 6.4 17.7 0.43 0.38 0.38 91 1004.1
20260506165027 15 185 3.2 11.3 0.28 0.33 0.33 91 1004.3
20260506164529 15 164 1.6 9.7 0.30 0.30 0.30 91 1004.3
20260506164027 15 202 3.2 11.3 0.23 0.28 0.28 90 1004.3
20260506163527 15 195 9.7 14.5 0.30 0.25 0.25 90 1004.3
20260506163030 15 201 12.9 14.5 0.30 0.23 0.23 90 1004.4
20260506162757 15 209 11.3 27.4 0.28 0.23 0.23 89 1004.3
20260506162028 16 203 9.7 27.4 0.23 0.20 0.20 89 1004.5
20260506161529 16 210 1.6 19.3 0.25 0.18 0.18 89 1004.4
20260506161026 16 214 9.7 12.9 0.15 0.15 0.15 89 1004.5
20260506160642 16 197 6.4 11.3 0.00 0.13 0.13 89 1004.6
20260506160028 16 217 6.4 9.7 0.00 0.13 0.13 89 1004.6
20260506155528 16 226 8.0 11.3 0.00 0.10 0.10 89 1004.5
20260506155142 16 226 6.4 11.3 0.00 0.10 0.10 88 1004.5
20260506154643 16 235 1.6 6.4 0.00 0.10 0.10 88 1004.3
20260506154143 16 201 3.2 11.3 0.00 0.10 0.10 89 1004.4
20260506153527 16 190 4.8 11.3 0.00 0.10 0.10 88 1004.4
20260506153029 16 178 1.6 6.4 0.00 0.08 0.08 88 1004.4
20260506152528 16 184 3.2 9.7 0.00 0.08 0.08 88 1004.5
20260506152028 16 199 4.8 16.1 0.00 0.08 0.08 87 1004.7
20260506151528 16 199 9.7 16.1 0.00 0.08 0.08 86 1004.8
20260506151027 16 271 4.8 14.5 0.00 0.05 0.05 86 1004.9
20260506150642 16 201 8.0 14.5 0.10 0.05 0.05 85 1004.9
20260506150143 16 207 8.0 22.5 0.13 0.05 0.05 85 1005.0
20260506145642 16 202 9.7 22.5 0.13 0.05 0.05 85 1005.1
20260506145142 16 199 6.4 22.5 0.00 0.03 0.03 84 1005.1
20260506144644 16 173 14.5 22.5 0.00 0.03 0.03 83 1005.2
20260506144028 17 212 16.1 25.7 0.00 0.03 0.03 82 1005.2
20260506143528 17 187 12.9 25.7 0.00 0.00 0.00 80 1005.3
20260506143028 17 218 3.2 29.0 0.00 0.00 0.00 79 1005.2
20260506142643 17 198 11.3 29.0 0.00 0.00 0.00 78 1005.2
20260506142027 17 192 27.4 30.6 0.00 0.00 0.00 76 1005.2
20260506141529 17 190 8.0 35.4 0.00 0.00 0.00 76 1005.2
20260506141027 17 200 11.3 35.4 0.00 0.00 0.00 76 1005.1
20260506140528 17 208 6.4 16.1 0.00 0.00 0.00 78 1005.1
20260506140144 17 195 6.4 14.5 0.00 0.00 0.00 78 1004.9
20260506135643 17 194 4.8 14.5 0.00 0.00 0.00 78 1005.0
20260506135027 17 159 0.0 17.7 0.00 0.00 0.00 78 1004.8
20260506134528 17 143 0.0 17.7 0.00 0.00 0.00 78 1004.8
20260506134027 17 167 8.0 14.5 0.00 0.00 0.00 78 1004.8
20260506133528 17 181 6.4 20.9 0.00 0.00 0.00 78 1004.7
20260506133028 17 152 11.3 20.9 0.00 0.00 0.00 78 1004.6
20260506132643 17 98 4.8 19.3 0.00 0.00 0.00 78 1004.6
20260506132142 17 206 3.2 19.3 0.00 0.00 0.00 79 1004.7
20260506131529 17 73 4.8 12.9 0.00 0.00 0.00 79 1004.8
20260506131027 17 140 0.0 14.5 0.00 0.00 0.00 79 1004.8
20260506130642 16 129 8.0 14.5 0.00 0.00 0.00 79 1004.8
20260506130259 16 214 8.0 14.5 0.00 0.00 0.00 80 1004.8
20260506125527 16 143 6.4 14.5 0.00 0.00 0.00 80 1005.1
20260506125142 16 127 3.2 11.3 0.00 0.00 0.00 80 1005.1
20260506124645 16 197 3.2 9.7 0.00 0.00 0.00 80 1005.2
20260506124142 16 184 1.6 14.5 0.00 0.00 0.00 80 1005.3
20260506123528 16 239 3.2 17.7 0.00 0.00 0.00 80 1005.5
20260506123027 16 241 3.2 17.7 0.00 0.00 0.00 80 1005.5
20260506122528 16 111 4.8 19.3 0.00 0.00 0.00 80 1005.5
20260506122027 16 186 11.3 22.5 0.00 0.00 0.00 80 1005.6
20260506121529 16 95 1.6 22.5 0.00 0.00 0.00 80 1005.5
20260506121029 16 179 9.7 17.7 0.00 0.00 0.00 80 1005.5
20260506120528 16 174 9.7 17.7 0.00 0.00 0.00 79 1005.5
20260506120029 16 154 1.6 16.1 0.00 0.00 0.00 79 1005.5
20260506115527 16 141 9.7 16.1 0.00 0.00 0.00 79 1005.4
20260506115142 16 254 6.4 20.9 0.00 0.00 0.00 79 1005.4
20260506114027 16 85 3.2 20.9 0.00 0.00 0.00 79 1005.2
20260506113643 16 187 3.2 25.7 0.00 0.00 0.00 79 1005.2
20260506113143 16 174 12.9 25.7 0.00 0.00 0.00 79 1005.2
20260506112528 15 229 8.0 17.7 0.00 0.00 0.00 79 1004.8
20260506112027 15 169 8.0 25.7 0.00 0.00 0.00 79 1004.9
20260506111529 15 111 17.7 25.7 0.00 0.00 0.00 79 1005.0
20260506111143 15 272 3.2 24.1 0.00 0.00 0.00 79 1005.2
20260506110528 15 27 6.4 24.1 0.00 0.00 0.00 79 1005.1
20260506110029 15 181 4.8 24.1 0.00 0.00 0.00 79 1005.3
20260506105758 15 359 6.4 29.0 0.00 0.00 0.00 79 1005.3
20260506105027 15 138 1.6 29.0 0.00 0.00 0.00 79 1005.2
20260506104528 15 151 11.3 22.5 0.00 0.00 0.00 80 1005.2
20260506104027 15 206 14.5 19.3 0.00 0.00 0.00 81 1005.3
20260506103528 14 93 3.2 17.7 0.00 0.00 0.00 83 1005.1
20260506103143 14 144 4.8 16.1 0.00 0.00 0.00 85 1005.2
20260506102757 13 191 11.3 17.7 0.00 0.00 0.00 86 1005.1
20260506102027 12 198 8.0 17.7 0.00 0.00 0.00 90 1005.1
20260506101530 12 179 6.4 16.1 0.00 0.00 0.00 94 1005.1
20260506101027 11 195 12.9 12.9 0.00 0.00 0.00 95 1005.1
20260506100527 11 218 1.6 6.4 0.00 0.00 0.00 96 1005.1
20260506100029 10 236 4.8 4.8 0.00 0.00 0.00 96 1005.0
20260506095642 10 236 0.0 6.4 0.00 0.00 0.00 95 1004.9
20260506095028 10 236 0.0 6.4 0.00 0.00 0.00 95 1004.9
20260506094528 10 297 0.0 0.0 0.00 0.00 0.00 95 1004.9
20260506094142 10 297 0.0 3.2 0.00 0.00 0.00 95 1004.8
20260506093642 10 297 0.0 3.2 0.00 0.00 0.00 95 1004.8
20260506093144 10 297 3.2 4.8 0.00 0.00 0.00 95 1004.9
20260506092530 10 297 0.0 4.8 0.00 0.00 0.00 95 1005.0
20260506092257 10 297 1.6 4.8 0.00 0.00 0.00 94 1004.9
20260506091529 11 297 1.6 6.4 0.00 0.00 0.00 95 1004.8
20260506091142 10 297 1.6 6.4 0.00 0.00 0.00 94 1004.9
20260506090528 11 299 0.0 6.4 0.00 0.00 0.00 94 1004.9
20260506090144 11 238 0.0 0.0 0.00 0.00 0.00 94 1004.9
20260506085527 11 238 0.0 0.0 0.00 0.00 0.00 94 1005.1
20260506085142 11 238 0.0 0.0 0.00 0.00 0.00 94 1005.2
20260506084529 11 238 0.0 0.0 0.00 0.00 0.00 94 1005.3
20260506084027 11 238 0.0 0.0 0.00 0.00 0.00 94 1005.1
20260506083527 11 238 0.0 0.0 0.00 0.00 0.00 94 1005.1
20260506083029 11 238 0.0 0.0 0.00 0.00 0.00 94 1005.1
20260506082529 11 238 0.0 0.0 0.00 0.00 0.00 94 1005.2
20260506082027 11 238 0.0 0.0 0.00 0.00 0.00 94 1005.3
20260506081645 11 238 0.0 0.0 0.00 0.00 0.00 94 1005.2
20260506081027 11 238 0.0 0.0 0.00 0.00 0.00 93 1005.5
20260506080528 12 238 0.0 0.0 0.00 0.00 0.00 94 1005.4
20260506080143 12 238 0.0 0.0 0.00 0.00 0.00 94 1005.5
20260506073029 12 238 0.0 3.2 0.00 0.00 0.00 93 1005.6
20260506072527 12 238 1.6 3.2 0.00 0.00 0.00 93 1005.8
20260506072027 12 238 1.6 3.2 0.00 0.00 0.00 93 1005.8
20260506071528 12 238 1.6 6.4 0.00 0.00 0.00 93 1005.9
20260506071027 12 238 1.6 6.4 0.00 0.00 0.00 93 1005.9
20260506070642 12 214 4.8 6.4 0.00 0.00 0.00 93 1006.0
20260506062028 13 170 0.0 0.0 0.00 0.00 0.00 92 1005.9
20260506061528 13 170 0.0 0.0 0.00 0.00 0.00 92 1005.9
20260506061027 13 170 0.0 0.0 0.00 0.00 0.00 92 1006.0
20260506060643 13 170 0.0 3.2 0.00 0.00 0.00 92 1005.9
20260506060145 13 170 0.0 3.2 0.00 0.00 0.00 92 1006.0
20260506051142 13 169 0.0 0.0 0.00 0.00 0.00 92 1006.2
20260506050528 13 169 0.0 6.4 0.00 0.00 0.00 92 1006.5
20260506045027 14 125 0.0 0.0 0.00 0.00 0.00 90 1006.4
20260506044528 14 125 0.0 3.2 0.00 0.00 0.00 90 1006.4
20260506044027 14 251 0.0 4.8 0.00 0.00 0.00 91 1006.4
20260506043527 14 251 1.6 4.8 0.00 0.00 0.00 91 1006.3
20260506043028 14 251 1.6 6.4 0.00 0.00 0.00 91 1006.2
20260506042527 14 251 3.2 6.4 0.00 0.00 0.00 91 1006.1
20260506042028 14 251 3.2 4.8 0.00 0.00 0.00 91 1006.1
20260506041643 14 251 3.2 4.8 0.00 0.00 0.00 91 1006.1
20260506041027 15 212 3.2 4.8 0.00 0.00 0.00 91 1006.1
20260506040527 15 212 0.0 6.4 0.00 0.00 0.00 91 1006.0
20260506040028 15 212 3.2 6.4 0.00 0.00 0.00 91 1006.1
20260506035528 15 160 0.0 3.2 0.00 0.03 0.03 90 1005.9
20260506035027 15 160 0.0 9.7 0.00 0.03 0.03 90 1006.0
20260506034530 15 135 1.6 9.7 0.00 0.03 0.03 90 1005.9
20260506034142 15 154 3.2 4.8 0.00 0.03 0.03 89 1005.9
20260506033528 15 286 3.2 4.8 0.00 0.03 0.03 90 1006.1
20260506033028 15 285 0.0 0.0 0.00 0.03 0.03 90 1006.0
20260506032528 15 285 0.0 0.0 0.00 0.03 0.03 89 1005.9
20260506032142 15 285 0.0 0.0 0.00 0.03 0.03 90 1005.8
20260506031644 15 285 0.0 0.0 0.00 0.03 0.03 90 1005.8
20260506031143 15 285 0.0 0.0 0.00 0.03 0.03 89 1005.8
20260506030527 15 319 0.0 0.0 0.00 0.03 0.03 89 1005.8
20260506030029 15 320 0.0 0.0 0.00 0.03 0.03 89 1005.7
20260506025643 15 316 0.0 1.6 0.00 0.03 0.03 89 1005.9
20260506025143 15 316 0.0 1.6 0.00 0.03 0.03 89 1006.0
20260506024528 15 315 0.0 4.8 0.00 0.03 0.03 89 1005.9
20260506024028 15 316 0.0 4.8 0.00 0.03 0.03 89 1005.9
20260506023527 15 316 3.2 8.0 0.00 0.03 0.03 89 1005.9
20260506023028 15 324 6.4 8.0 0.00 0.03 0.03 89 1006.0
20260506022642 15 255 3.2 4.8 0.00 0.03 0.03 89 1006.0
20260506022027 15 174 0.0 3.2 0.00 0.03 0.03 88 1006.1
20260506021529 15 298 0.0 0.0 0.00 0.03 0.03 88 1006.1
20260506021142 15 299 0.0 0.0 0.00 0.03 0.03 88 1006.2
20260506020527 15 299 0.0 1.6 0.00 0.03 0.03 87 1006.1
20260506020027 15 299 0.0 1.6 0.00 0.03 0.03 87 1006.1